RYR5346 LICC-LIMJ

Flight info

Callsign RYR5346
Flight time 1h 22m
Altitude 36000
Route BUDIN DCT TAGEL DCT ELB DCT BETEN/N0341F180 M729 IDONA
Aircraft B738/M-SDE2E3FGHIRWXY/LB1

Departure

Time 2026-04-26 16:33
Airport Catania-Fontanarossa Airport (LICC)

Arrival

Time 2026-04-26 17:56
Airport Genoa Cristoforo Colombo Airport (LIMJ)
Time Latitude Longitude Altitude Speed Heading
2026-04-26 15:39 37.46916 15.06623 38 ft 0 kts 19°
2026-04-26 16:20 37.46914 15.06622 38 ft 2 kts 19°
2026-04-26 16:21 37.46900 15.06616 37 ft 2 kts 19°
2026-04-26 16:21 37.46886 15.06610 37 ft 2 kts 19°
2026-04-26 16:21 37.46872 15.06604 37 ft 2 kts 19°
2026-04-26 16:21 37.46862 15.06599 36 ft 2 kts 19°
2026-04-26 16:22 37.46843 15.06609 36 ft 3 kts 297°
2026-04-26 16:22 37.46841 15.06624 36 ft 1 kts 257°
2026-04-26 16:22 37.46842 15.06630 36 ft 0 kts 263°
2026-04-26 16:24 37.46842 15.06629 36 ft 0 kts 263°
2026-04-26 16:26 37.46842 15.06628 36 ft 0 kts 263°
2026-04-26 16:26 37.46840 15.06610 36 ft 6 kts 263°
2026-04-26 16:26 37.46835 15.06556 37 ft 6 kts 264°
2026-04-26 16:27 37.46831 15.06505 38 ft 5 kts 264°
2026-04-26 16:27 37.46827 15.06441 38 ft 7 kts 264°
2026-04-26 16:27 37.46822 15.06383 39 ft 5 kts 264°
2026-04-26 16:27 37.46817 15.06330 39 ft 8 kts 263°
2026-04-26 16:28 37.46809 15.06232 41 ft 14 kts 263°
2026-04-26 16:28 37.46796 15.06086 43 ft 19 kts 264°
2026-04-26 16:28 37.46780 15.05892 47 ft 22 kts 264°
2026-04-26 16:28 37.46765 15.05710 50 ft 18 kts 264°
2026-04-26 16:29 37.46754 15.05585 52 ft 9 kts 264°
2026-04-26 16:29 37.46748 15.05504 53 ft 8 kts 264°
2026-04-26 16:29 37.46742 15.05434 54 ft 7 kts 264°
2026-04-26 16:29 37.46737 15.05380 55 ft 6 kts 264°
2026-04-26 16:30 37.46731 15.05339 55 ft 3 kts 248°
2026-04-26 16:30 37.46704 15.05297 56 ft 9 kts 224°
2026-04-26 16:30 37.46665 15.05250 57 ft 0 kts 221°
2026-04-26 16:30 37.46658 15.05242 57 ft 6 kts 221°
2026-04-26 16:31 37.46594 15.05200 58 ft 7 kts 176°
2026-04-26 16:31 37.46564 15.05239 57 ft 6 kts 103°
2026-04-26 16:31 37.46563 15.05258 57 ft 0 kts 88°
2026-04-26 16:33 37.46563 15.05259 57 ft 1 kts 88°
2026-04-26 16:33 37.46596 15.05647 51 ft 91 kts 84°
2026-04-26 16:33 37.46689 15.06804 48 ft 168 kts 84°
2026-04-26 16:33 37.46797 15.08395 717 ft 194 kts 85°
2026-04-26 16:34 37.46943 15.10139 1426 ft 222 kts 81°
2026-04-26 16:34 37.47234 15.12181 2210 ft 241 kts 77°
2026-04-26 16:34 37.47537 15.14207 3262 ft 246 kts 78°
2026-04-26 16:34 37.47848 15.16324 4238 ft 253 kts 78°
2026-04-26 16:35 37.48182 15.18520 4883 ft 264 kts 78°
2026-04-26 16:35 37.48531 15.20846 4987 ft 269 kts 78°
2026-04-26 16:35 37.48855 15.23119 4980 ft 259 kts 79°
2026-04-26 16:35 37.49155 15.25304 4984 ft 256 kts 79°
2026-04-26 16:36 37.49542 15.27521 4978 ft 256 kts 71°
2026-04-26 16:36 37.50408 15.29444 4978 ft 254 kts 45°
2026-04-26 16:36 37.51882 15.30773 5283 ft 271 kts 29°
2026-04-26 16:36 37.53482 15.31926 6538 ft 265 kts 30°
2026-04-26 16:37 37.54863 15.32973 7489 ft 265 kts 31°
2026-04-26 16:37 37.56428 15.34196 8444 ft 269 kts 32°
2026-04-26 16:37 37.58035 15.35464 9385 ft 274 kts 32°
2026-04-26 16:37 37.59648 15.36736 10325 ft 277 kts 32°
2026-04-26 16:38 37.61314 15.38047 11186 ft 284 kts 32°
2026-04-26 16:38 37.63016 15.39384 12039 ft 289 kts 32°
2026-04-26 16:38 37.64757 15.40750 12776 ft 299 kts 32°
2026-04-26 16:38 37.66584 15.42183 13306 ft 316 kts 32°
2026-04-26 16:39 37.68493 15.43650 13823 ft 331 kts 29°
2026-04-26 16:39 37.70647 15.44856 14332 ft 347 kts 15°
2026-04-26 16:39 37.73105 15.45166 14928 ft 358 kts 354°
2026-04-26 16:39 37.75521 15.44430 15805 ft 360 kts 339°
2026-04-26 16:40 37.77850 15.43294 16626 ft 363 kts 337°
2026-04-26 16:40 37.80241 15.42084 17453 ft 367 kts 337°
2026-04-26 16:40 37.82640 15.40872 18235 ft 371 kts 337°
2026-04-26 16:40 37.85128 15.39621 19042 ft 375 kts 337°
2026-04-26 16:41 37.87571 15.38394 19805 ft 378 kts 337°
2026-04-26 16:41 37.90001 15.37176 20569 ft 381 kts 336°
2026-04-26 16:41 37.92475 15.35936 21276 ft 385 kts 336°
2026-04-26 16:41 37.94972 15.34683 21979 ft 388 kts 336°
2026-04-26 16:42 37.97474 15.33427 22637 ft 392 kts 336°
2026-04-26 16:42 38.00029 15.32143 23319 ft 395 kts 336°
2026-04-26 16:42 38.02573 15.30863 23935 ft 398 kts 336°
2026-04-26 16:42 38.05254 15.29514 24603 ft 401 kts 336°
2026-04-26 16:43 38.07889 15.28187 25243 ft 404 kts 336°
2026-04-26 16:43 38.10498 15.26872 25877 ft 405 kts 336°
2026-04-26 16:43 38.13116 15.25553 26720 ft 401 kts 336°
2026-04-26 16:43 38.15699 15.24251 27542 ft 396 kts 335°
2026-04-26 16:44 38.18252 15.22962 28297 ft 393 kts 335°
2026-04-26 16:44 38.20769 15.21689 28984 ft 391 kts 335°
2026-04-26 16:44 38.23323 15.20396 29703 ft 388 kts 335°
2026-04-26 16:44 38.25804 15.19139 30339 ft 386 kts 335°
2026-04-26 16:45 38.28321 15.17862 30932 ft 385 kts 335°
2026-04-26 16:45 38.30815 15.16595 31465 ft 385 kts 335°
2026-04-26 16:45 38.33306 15.15329 31975 ft 384 kts 335°
2026-04-26 16:45 38.35809 15.14057 32519 ft 382 kts 335°
2026-04-26 16:46 38.38288 15.12795 33029 ft 381 kts 335°
2026-04-26 16:46 38.40758 15.11537 33519 ft 380 kts 335°
2026-04-26 16:46 38.43201 15.10292 33936 ft 380 kts 335°
2026-04-26 16:46 38.45649 15.08961 34437 ft 377 kts 332°
2026-04-26 16:47 38.47990 15.07416 34836 ft 376 kts 327°
2026-04-26 16:47 38.50193 15.05636 35307 ft 374 kts 323°
2026-04-26 16:47 38.52329 15.03710 35711 ft 373 kts 322°
2026-04-26 16:47 38.54440 15.01726 36085 ft 373 kts 321°
2026-04-26 16:48 38.58628 14.97739 36137 ft 375 kts 321°
2026-04-26 16:48 38.62823 14.93754 36140 ft 374 kts 321°
2026-04-26 16:49 38.66746 14.90035 36139 ft 375 kts 321°
2026-04-26 16:49 38.70764 14.86228 36141 ft 373 kts 321°
2026-04-26 16:50 38.74922 14.82284 36138 ft 375 kts 321°
2026-04-26 16:50 38.79096 14.78321 36137 ft 374 kts 321°
2026-04-26 16:51 38.83267 14.74354 36138 ft 384 kts 322°
2026-04-26 16:51 38.87638 14.70188 36136 ft 399 kts 322°
2026-04-26 16:52 38.91375 14.66623 36134 ft 411 kts 322°
2026-04-26 16:52 38.96833 14.61413 36133 ft 428 kts 322°
2026-04-26 16:53 39.01671 14.56785 36135 ft 443 kts 322°
2026-04-26 16:53 39.06657 14.52008 36131 ft 453 kts 322°
2026-04-26 16:54 39.11700 14.47170 36134 ft 452 kts 322°
2026-04-26 16:54 39.16715 14.42347 36135 ft 452 kts 322°
2026-04-26 16:55 39.21709 14.37534 36142 ft 454 kts 322°
2026-04-26 16:55 39.26723 14.32693 36137 ft 453 kts 322°
2026-04-26 16:56 39.34267 14.25392 36139 ft 453 kts 322°
2026-04-26 16:57 39.39274 14.20535 36140 ft 453 kts 322°
2026-04-26 16:57 39.46829 14.13187 36134 ft 453 kts 322°
2026-04-26 16:58 39.50995 14.09128 36136 ft 453 kts 322°
2026-04-26 16:59 39.59356 14.00960 36137 ft 454 kts 322°
2026-04-26 17:00 39.69381 13.91135 36141 ft 455 kts 322°
2026-04-26 17:00 39.76926 13.83715 36139 ft 455 kts 322°
2026-04-26 17:01 39.81970 13.78742 36140 ft 456 kts 322°
2026-04-26 17:01 39.87025 13.73750 36138 ft 457 kts 322°
2026-04-26 17:02 39.92068 13.68760 36134 ft 457 kts 322°
2026-04-26 17:02 39.97094 13.63780 36136 ft 457 kts 322°
2026-04-26 17:03 40.02133 13.58777 36135 ft 458 kts 322°
2026-04-26 17:03 40.07187 13.53747 36135 ft 457 kts 322°
2026-04-26 17:04 40.12215 13.48734 36137 ft 456 kts 322°
2026-04-26 17:04 40.17274 13.43683 36134 ft 457 kts 322°
2026-04-26 17:05 40.22271 13.38683 36139 ft 457 kts 322°
2026-04-26 17:05 40.27306 13.33636 36134 ft 457 kts 322°
2026-04-26 17:06 40.32280 13.28534 36131 ft 457 kts 320°
2026-04-26 17:06 40.37081 13.23103 36135 ft 456 kts 318°
2026-04-26 17:07 40.41797 13.17608 36132 ft 456 kts 318°
2026-04-26 17:07 40.46528 13.12107 36134 ft 456 kts 318°
2026-04-26 17:08 40.51258 13.06637 36136 ft 456 kts 318°
2026-04-26 17:08 40.56044 13.01122 36133 ft 456 kts 318°
2026-04-26 17:09 40.60000 12.96565 36131 ft 455 kts 318°
2026-04-26 17:09 40.65480 12.90244 36133 ft 455 kts 318°
2026-04-26 17:10 40.70245 12.84736 36136 ft 455 kts 318°
2026-04-26 17:10 40.74990 12.79242 36138 ft 455 kts 318°
2026-04-26 17:11 40.79715 12.73762 36138 ft 455 kts 318°
2026-04-26 17:11 40.84443 12.68267 36132 ft 455 kts 318°
2026-04-26 17:12 40.91580 12.59951 36135 ft 456 kts 318°
2026-04-26 17:13 40.98653 12.51684 36125 ft 454 kts 318°
2026-04-26 17:14 41.05740 12.43376 36121 ft 454 kts 318°
2026-04-26 17:14 41.12810 12.35064 36128 ft 455 kts 318°
2026-04-26 17:15 41.19915 12.26685 36124 ft 455 kts 317°
2026-04-26 17:16 41.24603 12.21141 36123 ft 455 kts 317°
2026-04-26 17:16 41.29303 12.15573 36126 ft 454 kts 317°
2026-04-26 17:17 41.34029 12.09963 36127 ft 454 kts 317°
2026-04-26 17:17 41.38715 12.04390 36126 ft 453 kts 317°
2026-04-26 17:18 41.43396 11.98811 36123 ft 453 kts 317°
2026-04-26 17:18 41.48094 11.93200 36020 ft 453 kts 317°
2026-04-26 17:19 41.55092 11.84824 36144 ft 451 kts 317°
2026-04-26 17:19 41.59670 11.79331 36123 ft 447 kts 317°
2026-04-26 17:20 41.63492 11.74735 36142 ft 449 kts 317°
2026-04-26 17:20 41.68835 11.68297 35915 ft 447 kts 317°
2026-04-26 17:21 41.71140 11.65516 36081 ft 449 kts 317°
2026-04-26 17:21 41.73465 11.62707 36112 ft 452 kts 317°
2026-04-26 17:21 41.78097 11.57104 36113 ft 449 kts 317°
2026-04-26 17:22 41.82636 11.51600 36111 ft 449 kts 317°
2026-04-26 17:22 41.87138 11.46131 36117 ft 449 kts 317°
2026-04-26 17:23 41.91646 11.40645 36112 ft 449 kts 317°
2026-04-26 17:23 41.96135 11.35171 36115 ft 449 kts 317°
2026-04-26 17:24 42.00645 11.29659 36110 ft 449 kts 316°
2026-04-26 17:24 42.05117 11.24182 36111 ft 450 kts 316°
2026-04-26 17:25 42.09670 11.18595 36113 ft 448 kts 316°
2026-04-26 17:25 42.13999 11.13275 36112 ft 447 kts 316°
2026-04-26 17:26 42.18336 11.07935 36113 ft 447 kts 316°
2026-04-26 17:26 42.22920 11.02278 36112 ft 446 kts 316°
2026-04-26 17:27 42.27479 10.96640 36111 ft 447 kts 316°
2026-04-26 17:27 42.31912 10.91148 36111 ft 448 kts 316°
2026-04-26 17:28 42.36486 10.85470 36117 ft 447 kts 316°
2026-04-26 17:28 42.41030 10.79814 36111 ft 447 kts 316°
2026-04-26 17:29 42.44848 10.75055 36115 ft 446 kts 316°
2026-04-26 17:29 42.50103 10.68490 36109 ft 445 kts 316°
2026-04-26 17:30 42.54527 10.62952 36112 ft 445 kts 316°
2026-04-26 17:30 42.59020 10.57319 36114 ft 439 kts 316°
2026-04-26 17:31 42.63502 10.51684 36118 ft 441 kts 316°
2026-04-26 17:31 42.67845 10.46213 36114 ft 439 kts 316°
2026-04-26 17:32 42.72369 10.40682 36118 ft 440 kts 320°
2026-04-26 17:32 42.77378 10.36034 36119 ft 440 kts 329°
2026-04-26 17:33 42.82729 10.32006 36115 ft 441 kts 330°
2026-04-26 17:34 42.90788 10.26126 36101 ft 442 kts 330°
2026-04-26 17:34 42.93453 10.24154 35881 ft 442 kts 330°
2026-04-26 17:34 42.96167 10.22130 35486 ft 437 kts 330°
2026-04-26 17:34 42.98851 10.20116 34737 ft 440 kts 330°
2026-04-26 17:35 43.01458 10.18150 33898 ft 442 kts 330°
2026-04-26 17:35 43.04045 10.16192 32980 ft 446 kts 330°
2026-04-26 17:35 43.06743 10.14145 32337 ft 442 kts 330°
2026-04-26 17:35 43.09426 10.12106 32024 ft 437 kts 330°
2026-04-26 17:36 43.12058 10.10103 31364 ft 437 kts 330°
2026-04-26 17:36 43.14695 10.08092 30623 ft 436 kts 330°
2026-04-26 17:36 43.17306 10.06100 30274 ft 432 kts 330°
2026-04-26 17:36 43.19935 10.04091 29655 ft 435 kts 330°
2026-04-26 17:37 43.22575 10.02071 28862 ft 437 kts 330°
2026-04-26 17:37 43.25191 10.00066 28586 ft 438 kts 330°
2026-04-26 17:37 43.27856 9.98023 28094 ft 444 kts 330°
2026-04-26 17:38 43.33035 9.94047 26724 ft 439 kts 330°
2026-04-26 17:38 43.35621 9.92060 26423 ft 434 kts 330°
2026-04-26 17:38 43.38099 9.90153 25848 ft 430 kts 330°
2026-04-26 17:38 43.40593 9.88232 24938 ft 432 kts 330°
2026-04-26 17:39 43.43132 9.86275 24562 ft 423 kts 330°
2026-04-26 17:39 43.45663 9.84322 24165 ft 416 kts 330°
2026-04-26 17:39 43.48100 9.82440 23886 ft 404 kts 330°
2026-04-26 17:39 43.50352 9.80699 23400 ft 400 kts 330°
2026-04-26 17:40 43.52654 9.78917 22838 ft 397 kts 330°
2026-04-26 17:40 43.54204 9.77716 22483 ft 394 kts 330°
2026-04-26 17:40 43.57312 9.75307 21737 ft 389 kts 330°
2026-04-26 17:40 43.59645 9.73496 21178 ft 385 kts 330°
2026-04-26 17:41 43.61941 9.71711 20617 ft 382 kts 330°
2026-04-26 17:41 43.64199 9.69955 20056 ft 379 kts 330°
2026-04-26 17:41 43.66346 9.68284 19511 ft 376 kts 330°
2026-04-26 17:41 43.68478 9.66623 19017 ft 371 kts 330°
2026-04-26 17:42 43.70633 9.64943 18666 ft 366 kts 330°
2026-04-26 17:42 43.72774 9.63271 17981 ft 367 kts 330°
2026-04-26 17:42 43.74960 9.61563 17510 ft 364 kts 330°
2026-04-26 17:42 43.77152 9.59848 16966 ft 364 kts 330°
2026-04-26 17:43 43.79260 9.58199 16668 ft 359 kts 330°
2026-04-26 17:43 43.81288 9.56611 16286 ft 358 kts 330°
2026-04-26 17:43 43.83461 9.54909 15648 ft 358 kts 331°
2026-04-26 17:43 43.85509 9.53304 15185 ft 353 kts 331°
2026-04-26 17:44 43.87527 9.51721 14892 ft 350 kts 331°
2026-04-26 17:44 43.89580 9.50110 14268 ft 351 kts 331°
2026-04-26 17:44 43.91581 9.48538 13849 ft 346 kts 332°
2026-04-26 17:44 43.93637 9.46923 13536 ft 345 kts 332°
2026-04-26 17:45 43.95726 9.45281 12912 ft 345 kts 332°
2026-04-26 17:45 43.97765 9.43556 12306 ft 345 kts 326°
2026-04-26 17:45 43.99567 9.41332 11800 ft 343 kts 313°
2026-04-26 17:45 44.01080 9.39045 11288 ft 339 kts 321°
2026-04-26 17:46 44.03056 9.37501 11147 ft 331 kts 341°
2026-04-26 17:46 44.05209 9.36598 11137 ft 338 kts 346°
2026-04-26 17:46 44.07371 9.35753 11130 ft 337 kts 345°
2026-04-26 17:46 44.09522 9.34816 11125 ft 337 kts 342°
2026-04-26 17:47 44.11609 9.33805 10969 ft 329 kts 340°
2026-04-26 17:47 44.12910 9.33132 10894 ft 320 kts 340°
2026-04-26 17:47 44.15378 9.31799 10499 ft 301 kts 339°
2026-04-26 17:47 44.17134 9.30822 10205 ft 286 kts 339°
2026-04-26 17:48 44.18786 9.29893 9847 ft 276 kts 339°
2026-04-26 17:48 44.20406 9.28981 9274 ft 276 kts 339°
2026-04-26 17:48 44.22004 9.28083 8784 ft 272 kts 339°
2026-04-26 17:48 44.23571 9.27200 8471 ft 261 kts 339°
2026-04-26 17:49 44.25091 9.26343 8178 ft 252 kts 339°
2026-04-26 17:49 44.26575 9.25507 7922 ft 246 kts 339°
2026-04-26 17:49 44.28078 9.24628 7906 ft 249 kts 336°
2026-04-26 17:49 44.29455 9.23493 7811 ft 246 kts 326°
2026-04-26 17:50 44.30691 9.22189 7623 ft 238 kts 322°
2026-04-26 17:50 44.31859 9.20881 7442 ft 227 kts 322°
2026-04-26 17:50 44.32998 9.19579 7262 ft 226 kts 319°
2026-04-26 17:50 44.33930 9.18021 6917 ft 229 kts 300°
2026-04-26 17:51 44.34444 9.16170 6579 ft 228 kts 287°
2026-04-26 17:51 44.34821 9.14230 6180 ft 230 kts 285°
2026-04-26 17:51 44.35189 9.12303 5697 ft 230 kts 286°
2026-04-26 17:51 44.35575 9.10394 5229 ft 228 kts 287°
2026-04-26 17:52 44.35970 9.08518 4753 ft 216 kts 287°
2026-04-26 17:52 44.36391 9.06733 4268 ft 205 kts 289°
2026-04-26 17:52 44.36816 9.05040 3791 ft 198 kts 288°
2026-04-26 17:52 44.37196 9.03419 3321 ft 193 kts 287°
2026-04-26 17:53 44.37538 9.01862 2973 ft 183 kts 285°
2026-04-26 17:53 44.37853 9.00373 2858 ft 175 kts 285°
2026-04-26 17:53 44.38164 8.98885 2726 ft 176 kts 285°
2026-04-26 17:54 44.38815 8.95894 2388 ft 184 kts 286°
2026-04-26 17:54 44.39149 8.94323 1931 ft 185 kts 286°
2026-04-26 17:54 44.39485 8.92746 1387 ft 188 kts 287°
2026-04-26 17:54 44.39813 8.91180 1006 ft 179 kts 286°
2026-04-26 17:55 44.40127 8.89697 609 ft 175 kts 286°
2026-04-26 17:55 44.40415 8.88266 366 ft 163 kts 283°
2026-04-26 17:55 44.40682 8.86888 174 ft 154 kts 286°
2026-04-26 17:55 44.40915 8.85632 45 ft 142 kts 284°
2026-04-26 17:56 44.41149 8.84409 23 ft 118 kts 283°
2026-04-26 17:56 44.41375 8.83258 20 ft 27 kts 288°
2026-04-26 17:57 44.41478 8.83097 21 ft 3 kts 335°
2026-04-26 17:57 44.41483 8.83094 21 ft 0 kts 340°
2026-04-26 17:57 44.41475 8.83099 21 ft 2 kts 339°
2026-04-26 17:57 44.41468 8.83102 21 ft 0 kts 339°
2026-04-26 17:58 44.41549 8.83182 20 ft 7 kts 105°
2026-04-26 17:59 44.41505 8.83396 19 ft 16 kts 107°
2026-04-26 17:59 44.41478 8.83539 18 ft 19 kts 105°
2026-04-26 17:59 44.41442 8.83719 17 ft 22 kts 105°
2026-04-26 17:59 44.41401 8.83931 17 ft 27 kts 105°
2026-04-26 18:00 44.41353 8.84172 20 ft 30 kts 106°
2026-04-26 18:00 44.41305 8.84417 24 ft 29 kts 105°
2026-04-26 18:00 44.41263 8.84630 26 ft 26 kts 105°
2026-04-26 18:00 44.41219 8.84863 27 ft 29 kts 99°
2026-04-26 18:01 44.41251 8.84937 27 ft 0 kts 338°
2026-04-26 18:01 44.41284 8.84935 27 ft 7 kts 11°
2026-04-26 18:01 44.41327 8.84951 28 ft 6 kts 24°
2026-04-26 18:01 44.41351 8.84957 28 ft 3 kts 353°
2026-04-26 18:02 44.41373 8.84958 28 ft 2 kts 13°
2026-04-26 18:02 44.41386 8.84969 28 ft 4 kts 36°
2026-04-26 18:02 44.41381 8.85010 28 ft 2 kts 20°
2026-04-26 18:02 44.41402 8.85022 28 ft 3 kts 19°
2026-04-26 18:03 44.41417 8.85028 29 ft 0 kts 18°
2026-04-26 18:03 44.41418 8.85029 29 ft 0 kts 18°